Regional Weather Roundup
Issued by NWS Sioux Falls, SD

Home | Current Version | Previous Version | Text Only | Print | Product List | Glossary On
Versions: 1 2 3 4 5 6 7 8 9 10 11 12 13 14 15 16 17 18 19 20 21 22 23 24 25 26 27 28 29 30 31 32 33 34 35 36 37 38 39 40 41 42 43 44 45 46 47 48 49 50
000
ASUS43 KFSD 181702
RWRFSD

WEATHER ROUNDUP FOR SE SOUTH DAKOTA/SW MINNESOTA/NW IOWA
NATIONAL WEATHER SERVICE SIOUX FALLS SD
1200 PM CDT FRI AUG 18 2017

NOTE: "FAIR" INDICATES FEW OR NO CLOUDS BELOW 12,000 FEET WITH NO
SIGNIFICANT WEATHER AND OR OBSTRUCTIONS TO VISIBILITY.


SDZ038>040-050-052>070-181800-
SOUTHEAST SOUTH DAKOTA

CITY           SKY/WX    TMP DP  RH WIND       PRES   REMARKS
BROOKINGS      SUNNY     73  60  63 S12       29.92F
CHAMBERLAIN    SUNNY     75  63  66 W9        29.95S
HURON          SUNNY     75  64  68 MISG      29.91S
MADISON        FAIR      72  64  78 SW10      29.93S
MITCHELL       SUNNY     75  63  66 S6        29.91S
SIOUX FALLS    MOSUNNY   75  62  64 S9        29.93F
WINNER         FAIR      77  58  51 NW15      29.97R
YANKTON        SUNNY     75  61  61 VRB6      29.94F
$$

MNZ071-072-080-081-089-090-097-098-181800-
SOUTHWEST MINNESOTA

CITY           SKY/WX    TMP DP  RH WIND       PRES   REMARKS
FAIRMONT       CLOUDY    68  62  81 CALM      29.96R
JACKSON        SUNNY     70  61  73 CALM      29.96S
LUVERNE        SUNNY     72  57  60 S6        29.94F
MARSHALL       SUNNY     75  58  55 SW7       29.92F
MONTEVIDEO     PTSUNNY   68  66  94 SW5       29.91F
PIPESTONE      SUNNY     73  61  64 SW8       29.94S
REDWOOD FALLS  CLOUDY    66  61  84 SW7       29.93S
TRACY          MOSUNNY   74  63  68 SW3       29.93F
WINDOM         SUNNY     72  59  64 CALM      29.94F
WORTHINGTON    SUNNY     71  61  70 VRB3      29.96S
$$

IAZ001>003-012>014-020>022-031-032-NEZ013-014-SDZ071-181800-
NORTHWEST IOWA

CITY           SKY/WX    TMP DP  RH WIND       PRES   REMARKS
CHEROKEE       SUNNY     76  63  65 E8        29.94F
DENISON        SUNNY     75  66  73 NW5       29.95F
ESTHERVILLE    SUNNY     69  63  81 CALM      29.95S
LE MARS        SUNNY     77  63  61 E8        29.93F
ORANGE CITY    SUNNY     77  64  65 SE5       29.94F
SHELDON        SUNNY     73  61  64 SE8       29.93F
SIOUX CITY     SUNNY     76  65  68 CALM      29.93F
SPENCER        SUNNY     73  60  63 E7        29.94F
STORM LAKE     SUNNY     73  63  68 E9        29.95S
$$

ABBREVIATIONS USED IN REMARKS
   TC - TEMPERATURE IN CELSIUS
  WCI - WIND CHILL INDEX
   HX - HEAT INDEX
  VSB - VISIBILITY





USA.gov is the U.S. government's official web portal to all federal, state and local government web resources and services.